Location: Wawayanda State Park
(41.1833°N, 74.4333°W)
Time: 11:01:04
(UTC-04:00)

Landsat 7 - Visible Passes

Search period start: 28 June 2016 00:00
Search period end: 08 July 2016 00:00
Orbit: 701 x 703 km, 98.2° (Epoch: 28 June)

Date Brightness Start Highest point End Pass type
(mag) Time Alt. Az. Time Alt. Az. Time Alt. Az.
28 Jun 3.9 22:27:03 28° SSE 22:29:27 65° ENE 22:34:11 10° N visible
29 Jun 6.2 00:05:56 11° WSW 00:07:37 13° W 00:09:48 10° WNW visible
29 Jun 5.5 21:31:28 10° ESE 21:34:51 20° ENE 21:38:13 10° NNE visible
29 Jun 4.5 23:10:20 30° SSW 23:12:14 46° W 23:16:49 10° NNW visible
30 Jun 4.2 22:14:43 24° SE 22:17:16 49° ENE 22:21:52 10° N visible
30 Jun 5.9 23:53:36 15° WSW 23:55:16 17° W 23:58:25 10° NW visible
01 Jul 5.8 21:20:04 10° E 21:22:46 15° ENE 21:25:28 10° NNE visible
01 Jul 4.1 22:57:59 33° S 22:59:58 62° WSW 23:04:43 10° NNW visible
02 Jul 4.6 22:02:23 20° SE 22:05:07 37° ENE 22:09:29 10° N visible
02 Jul 5.6 23:41:16 19° WSW 23:42:57 23° W 23:46:43 10° NW visible
03 Jul 6.0 21:09:06 10° E 21:10:42 12° ENE 21:12:19 10° NE visible
03 Jul 3.8 22:45:39 34° S 22:47:45 83° WSW 22:52:32 10° NNW visible
04 Jul 5.0 21:50:03 16° ESE 21:53:00 28° ENE 21:57:03 10° N visible
04 Jul 5.2 23:28:56 24° SW 23:30:38 30° W 23:34:50 10° NW visible
05 Jul 3.8 22:33:20 32° SSE 22:35:32 75° ENE 22:40:19 10° N visible
06 Jul 6.3 00:12:27 10° WSW 00:13:48 11° W 00:15:08 10° WNW visible
06 Jul 5.3 21:37:44 12° ESE 21:40:53 22° ENE 21:44:31 10° NNE visible
06 Jul 4.8 23:16:37 29° SW 23:18:21 40° W 23:22:50 10° NNW visible
07 Jul 4.0 22:21:01 28° SE 22:23:21 56° ENE 22:28:01 10° N visible
